Regional Weather Roundup
Issued by NWS

Home | Current Version | Previous Version | Graphics & Text | Print | Product List | Glossary On
Versions: 1 2 3 4 5 6 7 8 9 10 11 12 13 14 15 16 17 18 19 20 21 22 23 24 25 26 27 28 29 30 31 32 33 34 35 36 37 38 39 40 41 42 43 44 45 46 47 48 49 50
000
ASUS44 KMEG 230310
RWRTN
TENNESSEE HOURLY STATE WEATHER ROUNDUP
NATIONAL WEATHER SERVICE MEMPHIS TN
1000 PM CDT FRI JUL 22 2016

TNZ002-004-019-021-049-052-054-088>092-230400-
WEST TENNESSEE

CITY           SKY/WX    TMP DP  RH WIND       PRES   REMARKS
MEMPHIS INTL   CLOUDY    85  71  63 SE8       30.01R HX  90
NWS MEMPHIS      N/A     76 N/A N/A MISG        N/A
JACKSON        MOCLDY    79  72  79 S6        30.02R
DYERSBURG      CLOUDY    75  72  88 MISG      30.02R
UNION CITY     CLEAR     79  77  94 CALM      30.01R
PARIS          PTCLDY    73  72  94 CALM      30.04R
LEXINGTON      CLEAR     73  73 100 CALM      30.02S
$$

TNZ008-025-027-028-033-062-065-066-230400-
NORTH MIDDLE TENNESSEE

CITY           SKY/WX    TMP DP  RH WIND       PRES   REMARKS
NASHVILLE      CLOUDY    80  70  71 CALM      30.04R
CLARKSVILLE    PTCLDY    79  71  76 N6        30.04R
SMYRNA         CLOUDY    82  73  74 CALM      30.05R
COOKEVILLE     CLEAR     79  77  94 CALM      30.06S
CROSSVILLE     PTCLDY    78  73  84 CALM      30.12R
$$

TNZ061-075-076-078-094-096-097-230400-
SOUTH MIDDLE TENNESSEE

CITY           SKY/WX    TMP DP  RH WIND       PRES   REMARKS
FAYETTEVILLE   CLEAR     81  72  74 CALM      30.06R
TULLAHOMA      CLEAR     79  73  83 CALM      30.08R
WINCHESTER     CLEAR     82  73  74 CALM      30.07R
MCMINNVILLE    CLEAR     81  79  94 CALM      30.07R
COLUMBIA       CLEAR     79  79 100 CALM      30.04S
SHELBYVILLE    CLEAR     82  81  94 CALM      30.06R HX  95
$$

TNZ017-018-042-046-047-230400-
NORTHEAST TENNESSEE

CITY           SKY/WX    TMP DP  RH WIND       PRES   REMARKS
TRI CITIES     CLOUDY    78  69  73 CALM      30.07R
ELIZABETHTON   CLOUDY    73  68  83 CALM      30.07R
$$

TNZ012-013-036-069-073-074-230400-
CENTRAL EAST TENNESSEE

CITY           SKY/WX    TMP DP  RH WIND       PRES   REMARKS
KNOXVILLE      MOCLDY    84  71  65 CALM      30.02R
OAK RIDGE      PTCLDY    84  71  65 CALM      30.05R
GATLINBURG     CLEAR     79  68  69 CALM      30.04R
MORRISTOWN     PTCLDY    79  72  78 SW6       30.05R
$$

TNZ083-085-099-230400-
SOUTHEAST TENNESSEE

CITY           SKY/WX    TMP DP  RH WIND       PRES   REMARKS
CHATTANOOGA    MOCLDY    80  70  71 CALM      30.05R
$$

SKY/WX REPORTED AS FAIR MEANS FEW OR NO CLOUDS BELOW
12 THOUSAND FEET.





USA.gov is the U.S. government's official web portal to all federal, state and local government web resources and services.